| time (UTC) | temp F | wind direction | speed MPH | gust MPH | rain 1hr in | rain 24hr in | rain mn in | humidity % | barometer mb |
| 20260505034433 | 60 | 210 | 0.0 | 2.0 | 0.00 | 0.00 | 0.00 | 62 | 1013.2 |
| 20260505033431 | 61 | 212 | 0.0 | 3.0 | 0.00 | 0.00 | 0.00 | 61 | 1013.3 |
| 20260505032430 | 62 | 212 | 1.0 | 3.0 | 0.00 | 0.00 | 0.00 | 58 | 1013.3 |
| 20260505031429 | 63 | 101 | 0.0 | 2.0 | 0.00 | 0.00 | 0.00 | 58 | 1013.5 |
| 20260505030427 | 65 | 101 | 1.0 | 2.0 | 0.00 | 0.00 | 0.00 | 55 | 1013.6 |
| 20260505025427 | 66 | 276 | 1.0 | 1.0 | 0.00 | 0.00 | 0.00 | 50 | 1013.6 |
| 20260505024426 | 67 | 276 | 0.0 | 3.0 | 0.00 | 0.00 | 0.00 | 49 | 1013.6 |
| 20260505023425 | 68 | 275 | 0.0 | 8.0 | 0.00 | 0.00 | 0.00 | 46 | 1013.2 |
| 20260505022424 | 68 | 291 | 2.0 | 8.0 | 0.00 | 0.00 | 0.00 | 44 | 1013.0 |
| 20260505021423 | 69 | 296 | 4.0 | 7.0 | 0.00 | 0.00 | 0.00 | 44 | 1012.8 |
| 20260505020422 | 69 | 295 | 2.0 | 5.0 | 0.00 | 0.00 | 0.00 | 44 | 1012.8 |
| 20260505015421 | 70 | 326 | 2.0 | 6.0 | 0.00 | 0.00 | 0.00 | 43 | 1012.7 |
| 20260505014419 | 71 | 309 | 2.0 | 8.0 | 0.00 | 0.00 | 0.00 | 42 | 1012.7 |
| 20260505013418 | 72 | 321 | 2.0 | 8.0 | 0.00 | 0.00 | 0.00 | 39 | 1012.7 |
| 20260505012418 | 73 | 351 | 1.0 | 7.0 | 0.00 | 0.00 | 0.00 | 37 | 1012.7 |
| 20260505011417 | 73 | 301 | 2.0 | 8.0 | 0.00 | 0.00 | 0.00 | 36 | 1012.6 |
| 20260505010416 | 73 | 316 | 2.0 | 8.0 | 0.00 | 0.00 | 0.00 | 37 | 1012.6 |
| 20260505005415 | 73 | 319 | 1.0 | 7.0 | 0.00 | 0.00 | 0.00 | 37 | 1012.5 |
| 20260505004344 | 72 | 328 | 2.0 | 9.0 | 0.00 | 0.00 | 0.00 | 35 | 1012.5 |
| 20260505003343 | 73 | 324 | 1.0 | 9.0 | 0.00 | 0.00 | 0.00 | 32 | 1012.5 |
| 20260505002310 | 73 | 318 | 2.0 | 7.0 | 0.00 | 0.00 | 0.00 | 31 | 1012.4 |
| 20260505001309 | 72 | 312 | 2.0 | 6.0 | 0.00 | 0.00 | 0.00 | 35 | 1012.5 |
| 20260505000309 | 72 | 321 | 2.0 | 7.0 | 0.00 | 0.00 | 0.00 | 33 | 1012.5 |
| 20260504235308 | 72 | 333 | 1.0 | 4.0 | 0.00 | 0.00 | 0.00 | 32 | 1012.5 |
| 20260504234307 | 72 | 8 | 1.0 | 3.0 | 0.00 | 0.00 | 0.00 | 32 | 1012.5 |
| 20260504233305 | 72 | 13 | 2.0 | 4.0 | 0.00 | 0.00 | 0.00 | 33 | 1012.6 |
| 20260504232304 | 72 | 8 | 2.0 | 8.0 | 0.00 | 0.00 | 0.00 | 35 | 1012.6 |
| 20260504231232 | 72 | 10 | 1.0 | 8.0 | 0.00 | 0.00 | 0.00 | 35 | 1012.6 |
| 20260504230231 | 73 | 22 | 2.0 | 4.0 | 0.00 | 0.00 | 0.00 | 36 | 1012.7 |
| 20260504225128 | 73 | 338 | 2.0 | 10.0 | 0.00 | 0.00 | 0.00 | 36 | 1012.8 |
| 20260504224056 | 74 | 353 | 2.0 | 10.0 | 0.00 | 0.00 | 0.00 | 35 | 1013.2 |
| 20260504223055 | 74 | 311 | 2.0 | 6.0 | 0.00 | 0.00 | 0.00 | 34 | 1012.9 |
| 20260504222054 | 73 | 359 | 1.0 | 8.0 | 0.00 | 0.00 | 0.00 | 35 | 1013.3 |
| 20260504221053 | 73 | 17 | 2.0 | 8.0 | 0.00 | 0.00 | 0.00 | 34 | 1013.2 |
| 20260504220021 | 73 | 357 | 1.0 | 4.0 | 0.00 | 0.00 | 0.00 | 43 | 1013.5 |
| 20260504215019 | 73 | 24 | 2.0 | 4.0 | 0.00 | 0.00 | 0.00 | 42 | 1013.4 |
| 20260504214018 | 73 | 12 | 2.0 | 4.0 | 0.00 | 0.00 | 0.00 | 40 | 1013.7 |
| 20260504213017 | 74 | 326 | 1.0 | 4.0 | 0.00 | 0.00 | 0.00 | 39 | 1013.8 |
| 20260504212016 | 74 | 310 | 2.0 | 10.0 | 0.00 | 0.00 | 0.00 | 40 | 1013.8 |
| 20260504211015 | 73 | 64 | 2.0 | 10.0 | 0.00 | 0.00 | 0.00 | 43 | 1013.8 |
| 20260504210014 | 73 | 17 | 2.0 | 3.0 | 0.00 | 0.00 | 0.00 | 43 | 1013.8 |
| 20260504205013 | 73 | 118 | 2.0 | 4.0 | 0.00 | 0.00 | 0.00 | 45 | 1013.9 |
| 20260504204011 | 74 | 17 | 1.0 | 4.0 | 0.00 | 0.00 | 0.00 | 42 | 1014.3 |
| 20260504203010 | 74 | 33 | 1.0 | 3.0 | 0.00 | 0.00 | 0.00 | 44 | 1014.3 |
| 20260504202009 | 74 | 15 | 1.0 | 4.0 | 0.00 | 0.00 | 0.00 | 40 | 1014.3 |
| 20260504201008 | 73 | 31 | 1.0 | 4.0 | 0.00 | 0.00 | 0.00 | 41 | 1014.3 |
| 20260504200007 | 73 | 7 | 2.0 | 4.0 | 0.00 | 0.00 | 0.00 | 45 | 1014.3 |
| 20260504195006 | 73 | 56 | 1.0 | 5.0 | 0.00 | 0.00 | 0.00 | 44 | 1014.2 |
| 20260504194006 | 72 | 13 | 2.0 | 8.0 | 0.00 | 0.00 | 0.00 | 42 | 1014.2 |
| 20260504193004 | 72 | 310 | 2.0 | 8.0 | 0.00 | 0.00 | 0.00 | 43 | 1014.2 |
| 20260504191932 | 72 | 329 | 1.0 | 6.0 | 0.00 | 0.00 | 0.00 | 48 | 1014.3 |
| 20260504190932 | 72 | 271 | 3.0 | 6.0 | 0.00 | 0.00 | 0.00 | 44 | 1014.2 |
| 20260504185930 | 71 | 70 | 1.0 | 4.0 | 0.00 | 0.00 | 0.00 | 45 | 1014.4 |
| 20260504184930 | 71 | 70 | 1.0 | 4.0 | 0.00 | 0.00 | 0.00 | 43 | 1014.4 |
| 20260504183929 | 71 | 41 | 1.0 | 4.0 | 0.00 | 0.00 | 0.00 | 45 | 1014.4 |
| 20260504182928 | 71 | 18 | 1.0 | 4.0 | 0.00 | 0.00 | 0.00 | 43 | 1014.4 |
| 20260504181927 | 71 | 54 | 1.0 | 6.0 | 0.00 | 0.00 | 0.00 | 46 | 1014.4 |
| 20260504180926 | 71 | 324 | 2.0 | 6.0 | 0.00 | 0.00 | 0.00 | 46 | 1014.4 |
| 20260504175925 | 71 | 19 | 2.0 | 4.0 | 0.00 | 0.00 | 0.00 | 45 | 1014.7 |
| 20260504174925 | 70 | 41 | 1.0 | 3.0 | 0.00 | 0.00 | 0.00 | 46 | 1014.6 |
| 20260504173923 | 69 | 22 | 1.0 | 4.0 | 0.00 | 0.00 | 0.00 | 45 | 1014.5 |
| 20260504172922 | 69 | 11 | 2.0 | 4.0 | 0.00 | 0.00 | 0.00 | 45 | 1014.5 |
| 20260504171921 | 68 | 14 | 2.0 | 4.0 | 0.00 | 0.00 | 0.00 | 48 | 1014.4 |
| 20260504170920 | 67 | 18 | 1.0 | 4.0 | 0.00 | 0.00 | 0.00 | 47 | 1014.3 |
| 20260504150631 | 59 | 286 | 1.0 | 2.0 | 0.00 | 0.00 | 0.00 | 50 | 1015.6 |
| 20260504140523 | 51 | 234 | 2.0 | 4.0 | 0.00 | 0.00 | 0.00 | 66 | 1015.3 |
| 20260504130446 | 46 | 155 | 0.0 | 2.0 | 0.00 | 0.00 | 0.00 | 69 | 1014.6 |
| 20260504110402 | 48 | 157 | 0.0 | 2.0 | 0.00 | 0.00 | 0.00 | 63 | 1014.9 |
| 20260504100120 | 50 | 157 | 1.0 | 2.0 | 0.00 | 0.00 | 0.00 | 58 | 1015.2 |
| 20260504090114 | 50 | 156 | 2.0 | 3.0 | 0.00 | 0.00 | 0.00 | 58 | 1015.6 |
| 20260504081006 | 51 | 159 | 1.0 | 2.0 | 0.00 | 0.00 | 0.00 | 57 | 1015.8 |
| 20260504050741 | 52 | 192 | 0.0 | 3.0 | 0.00 | 0.00 | 0.00 | 58 | 1015.6 |
| 20260504045741 | 53 | 190 | 1.0 | 3.0 | 0.00 | 0.00 | 0.00 | 58 | 1015.8 |
| 20260504044739 | 53 | 190 | 1.0 | 4.0 | 0.00 | 0.00 | 0.00 | 58 | 1015.7 |
| 20260504043738 | 53 | 190 | 1.0 | 4.0 | 0.00 | 0.00 | 0.00 | 59 | 1015.3 |
| 20260504042738 | 53 | 219 | 2.0 | 3.0 | 0.00 | 0.00 | 0.00 | 60 | 1015.3 |
| 20260504041736 | 54 | 223 | 1.0 | 4.0 | 0.00 | 0.00 | 0.00 | 60 | 1015.3 |
| 20260504040704 | 54 | 229 | 2.0 | 4.0 | 0.00 | 0.00 | 0.00 | 60 | 1015.4 |
| 20260504035703 | 56 | 303 | 1.0 | 2.0 | 0.00 | 0.00 | 0.00 | 59 | 1015.5 |